User: anonymous   Login
Location: Azul
(36.7830°S, 59.8500°W)
Time: 22:54:41
(UTC-03:00)
Language:

CAS-4A - Orbit

View from above orbital plane
View from above orbital plane
View from above satellite
View from above satellite

Ground track
Ground track

The orbit data is extracted from the following two-line orbital elements,

1 42761U 17034D   22220.60149906  .00001758  00000-0  11253-3 0  9994
2 42761  43.0183  43.9416 0011070 262.5103 207.1861 15.12282851284257
Epoch (UTC): 08 August 2022 14:26:09
Eccentricity: 0.0011070
inclination: 43.0183°
perigee height: 521 km
apogee height: 537 km
right ascension of ascending node: 43.9416°
argument of perigee: 262.5103°
revolutions per day: 15.12282851
mean anomaly at epoch: 207.1861°
orbit number at epoch: 28425

The dashed part of the orbit path shows where the satellite is in the earth's shadow,  

DLR